This demonstration page uses our WeatherBlox Daily Observations layout. Learn more.

Left ArrowRight Arrow

Hourly Observations for August 8, 2019

Temp ( °F °C ) Dew Point ( °F °C ) Humidity (%) Winds ( mph kmh ) Pressure ( in mb ) Visibility ( mi km ) Precip ( " mm )
12:56 am 00:56 Mostly Clear 77 25 72 22 83 83 VRB 7 11 29.86 1011 10 16 0.00 0.00
1:56 am 01:56 Mostly Clear 75 24 70 21 83 83 VRB 7 11 29.84 1011 10 16 0.00 0.00
2:56 am 02:56 Clear N/A N/A N/A Calm N/A 10 16 0.00 0.00
3:56 am 03:56 Partly Cloudy 73 23 70 21 89 89 VRB 7 11 29.87 1012 10 16 0.00 0.00
4:56 am 04:56 Mostly Clear 73 23 70 21 89 89 VRB 7 11 29.88 1012 10 16 0.00 0.00
5:56 am 05:56 Mostly Clear 73 23 70 21 89 89 VRB 7 11 29.88 1012 10 16 0.00 0.00
6:56 am 06:56 Mostly Cloudy 73 23 70 21 89 89 VRB 7 11 29.90 1013 10 16 0.00 0.00
7:56 am 07:56 Cloudy 73 23 72 22 94 94 Calm 29.93 1014 10 16 0.00 0.00
8:56 am 08:56 Cloudy 73 23 66 19 78 78 NNE 7 11 29.96 1014 10 16 0.00 0.00
9:56 am 09:56 Partly Cloudy 73 23 64 18 74 74 NE 5 7 29.95 1014 10 16 0.00 0.00
11:56 am 11:56 Mostly Sunny 81 27 66 19 62 62 NE 3 6 29.96 1015 10 16 0.00 0.00
12:56 pm 12:56 Partly Cloudy 82 28 66 19 58 58 Calm 29.95 1014 10 16 0.00 0.00
1:56 pm 13:56 Mostly Sunny 86 30 68 20 55 55 Calm 29.93 1014 10 16 0.00 0.00
2:56 pm 14:56 Partly Cloudy 86 30 68 20 55 55 Calm 29.92 1013 10 16 0.00 0.00
3:56 pm 15:56 Mostly Cloudy 86 30 68 20 55 55 E 2 4 29.92 1013 10 16 0.00 0.00
4:56 pm 16:56 Mostly Cloudy 86 30 68 20 55 55 NNE 3 6 29.91 1013 10 16 0.00 0.00
5:56 pm 17:56 Mostly Cloudy 86 30 70 21 59 59 NE 6 9 29.90 1013 10 16 0.00 0.00
6:56 pm 18:56 Mostly Cloudy 84 29 70 21 62 62 ENE 7 11 29.91 1013 10 16 0.00 0.00
7:57 pm 19:57 Mostly Sunny N/A N/A N/A NNE 10 17 N/A 10 16 0.00 0.00
8:56 pm 20:56 Mostly Cloudy 81 27 66 19 62 62 NE 7 11 29.93 1014 10 16 0.00 0.00
9:41 pm 21:41 Clear with Mist and Fog N/A N/A N/A NNE 8 13 N/A 2 3 0.00 0.00
9:56 pm 21:56 Mostly Cloudy 79 26 63 17 58 58 NNE 9 15 29.96 1014 10 16 0.00 0.00
10:56 pm 22:56 Partly Cloudy 77 25 63 17 61 61 ENE 3 6 29.96 1015 10 16 0.00 0.00
11:56 pm 23:56 Mostly Clear 75 24 61 16 61 61 NE 5 7 29.96 1015 10 16 0.00 0.00

Powered by AerisWeather